Time,TemperatureF,DewpointF,PressureIn,WindDirection,WindDirectionDegrees,WindSpeedMPH,WindSpeedGustMPH,Humidity,HourlyPrecipIn,Conditions,Clouds,dailyrainin,SoftwareType,DateUTC
2013-10-06 00:01:00,73.4,65.5,29.87,NNW,336,7.2,12.8,76,0.21,,,0.02,WUHU21623XXSP,2013-10-06 05:01:00,
2013-10-06 00:06:00,73.0,65.1,29.89,WNW,292,4.3,12.8,76,0.27,,,0.08,WUHU21623XXSP,2013-10-06 05:06:00,
2013-10-06 00:11:00,72.3,64.4,29.89,WNW,301,6.5,9.8,76,0.51,,,0.32,WUHU21623XXSP,2013-10-06 05:11:00,
2013-10-06 00:16:00,72.0,64.2,29.88,SSW,208,3.7,9.8,76,0.82,,,0.63,WUHU21623XXSP,2013-10-06 05:16:00,
2013-10-06 00:21:00,71.2,63.4,29.87,SSW,200,7.5,12.5,76,0.98,,,0.79,WUHU21623XXSP,2013-10-06 05:21:00,
2013-10-06 00:26:00,70.9,62.7,29.88,SW,225,12.8,16.8,75,1.04,,,0.85,WUHU21623XXSP,2013-10-06 05:26:00,
2013-10-06 00:31:00,70.9,62.3,29.88,West,270,12.8,16.8,74,1.35,,,1.16,WUHU21623XXSP,2013-10-06 05:31:00,
2013-10-06 00:36:00,70.9,62.0,29.88,NW,326,7.1,16.6,73,1.55,,,1.38,WUHU21623XXSP,2013-10-06 05:36:00,
2013-10-06 00:41:00,70.7,61.8,29.87,NNW,330,9.6,16.1,73,1.60,,,1.53,WUHU21623XXSP,2013-10-06 05:41:00,
2013-10-06 00:46:00,70.3,61.4,29.88,NW,315,8.5,16.1,73,1.63,,,1.59,WUHU21623XXSP,2013-10-06 05:46:00,
2013-10-06 00:51:00,69.8,60.9,29.87,NNW,337,10.3,13.6,73,1.69,,,1.67,WUHU21623XXSP,2013-10-06 05:51:00,
2013-10-06 00:56:00,69.4,60.5,29.88,NNW,338,10.5,16.1,73,1.69,,,1.69,WUHU21623XXSP,2013-10-06 05:56:00,
2013-10-06 01:01:00,69.1,60.2,29.88,NNE,22,7.8,16.1,73,1.69,,,1.69,WUHU21623XXSP,2013-10-06 06:01:00,
2013-10-06 01:06:00,68.5,59.7,29.88,North,0,11.2,12.5,73,1.61,,,1.69,WUHU21623XXSP,2013-10-06 06:06:00,
2013-10-06 01:11:00,68.4,59.6,29.88,North,0,9.6,12.1,73,1.33,,,1.69,WUHU21623XXSP,2013-10-06 06:11:00,
2013-10-06 01:16:00,68.2,59.4,29.88,North,0,9.0,12.5,73,1.06,,,1.69,WUHU21623XXSP,2013-10-06 06:16:00,
2013-10-06 01:21:00,67.8,59.0,29.88,North,0,11.6,12.5,73,0.90,,,1.69,WUHU21623XXSP,2013-10-06 06:21:00,
2013-10-06 01:26:00,67.8,59.0,29.88,NNW,348,6.1,12.3,73,0.84,,,1.69,WUHU21623XXSP,2013-10-06 06:26:00,
2013-10-06 01:31:00,67.8,59.0,29.89,NNW,337,6.9,12.1,73,0.53,,,1.69,WUHU21623XXSP,2013-10-06 06:31:00,
2013-10-06 01:36:00,67.6,58.4,29.88,North,354,7.7,16.1,72,0.33,,,1.71,WUHU21623XXSP,2013-10-06 06:36:00,
2013-10-06 01:41:00,67.6,58.4,29.88,North,0,5.4,16.1,72,0.18,,,1.71,WUHU21623XXSP,2013-10-06 06:41:00,
2013-10-06 01:46:00,67.6,58.4,29.88,NNW,337,7.6,12.5,72,0.12,,,1.71,WUHU21623XXSP,2013-10-06 06:46:00,
2013-10-06 01:51:00,67.6,58.4,29.87,NNW,337,11.6,11.6,72,0.04,,,1.71,WUHU21623XXSP,2013-10-06 06:51:00,
2013-10-06 01:56:00,67.6,58.4,29.88,NNW,337,9.4,14.8,72,0.02,,,1.71,WUHU21623XXSP,2013-10-06 06:56:00,
2013-10-06 02:01:00,67.6,58.4,29.88,NW,324,6.0,14.8,72,0.02,,,1.71,WUHU21623XXSP,2013-10-06 07:01:00,
2013-10-06 02:06:00,67.6,58.4,29.88,NNW,337,6.2,12.8,72,0.02,,,1.71,WUHU21623XXSP,2013-10-06 07:06:00,
2013-10-06 02:11:00,67.5,58.3,29.89,NNW,337,10.1,11.0,72,0.02,,,1.71,WUHU21623XXSP,2013-10-06 07:11:00,
2013-10-06 02:16:00,67.3,58.1,29.90,NNW,337,3.8,11.0,72,0.02,,,1.71,WUHU21623XXSP,2013-10-06 07:16:00,
2013-10-06 02:21:00,67.3,58.1,29.90,SW,225,5.1,10.5,72,0.02,,,1.71,WUHU21623XXSP,2013-10-06 07:21:00,
2013-10-06 02:26:00,67.1,57.9,29.90,SSW,202,1.1,9.4,72,0.02,,,1.71,WUHU21623XXSP,2013-10-06 07:26:00,
2013-10-06 02:31:00,67.1,57.9,29.90,WSW,246,5.5,9.4,72,0.02,,,1.71,WUHU21623XXSP,2013-10-06 07:31:00,
2013-10-06 02:36:00,66.9,58.1,29.91,SW,224,5.2,9.2,73,0.00,,,1.71,WUHU21623XXSP,2013-10-06 07:36:00,
2013-10-06 02:41:00,66.7,57.9,29.90,WNW,297,5.6,9.2,73,0.00,,,1.71,WUHU21623XXSP,2013-10-06 07:41:00,
2013-10-06 02:46:00,66.7,57.9,29.90,WNW,303,3.6,7.8,73,0.02,,,1.73,WUHU21623XXSP,2013-10-06 07:46:00,
2013-10-06 02:51:00,66.6,57.8,29.90,WNW,293,5.3,11.9,73,0.02,,,1.73,WUHU21623XXSP,2013-10-06 07:51:00,
2013-10-06 02:56:00,66.4,57.6,29.90,NW,315,6.7,11.9,73,0.04,,,1.75,WUHU21623XXSP,2013-10-06 07:56:00,
2013-10-06 03:01:00,66.2,57.1,29.89,NNW,327,6.3,12.8,72,0.06,,,1.77,WUHU21623XXSP,2013-10-06 08:01:00,
2013-10-06 03:06:00,66.0,56.9,29.90,WNW,292,16.8,16.8,72,0.06,,,1.77,WUHU21623XXSP,2013-10-06 08:06:00,
2013-10-06 03:11:00,65.5,56.4,29.90,NW,315,14.5,18.8,72,0.06,,,1.77,WUHU21623XXSP,2013-10-06 08:11:00,
2013-10-06 03:16:00,64.2,55.5,29.90,NW,310,10.5,18.8,73,0.06,,,1.77,WUHU21623XXSP,2013-10-06 08:16:00,
2013-10-06 03:21:00,63.1,54.4,29.90,NW,308,10.6,17.7,73,0.06,,,1.77,WUHU21623XXSP,2013-10-06 08:21:00,
2013-10-06 03:26:00,62.4,53.8,29.91,WNW,302,11.6,17.7,73,0.08,,,1.79,WUHU21623XXSP,2013-10-06 08:26:00,
2013-10-06 03:31:00,61.5,52.9,29.92,West,270,2.9,16.8,73,0.10,,,1.81,WUHU21623XXSP,2013-10-06 08:31:00,
2013-10-06 03:36:00,61.2,52.6,29.92,NW,315,3.4,13.9,73,0.12,,,1.83,WUHU21623XXSP,2013-10-06 08:36:00,
2013-10-06 03:41:00,60.6,52.4,29.92,NW,315,5.1,8.7,74,0.14,,,1.85,WUHU21623XXSP,2013-10-06 08:41:00,
2013-10-06 03:46:00,60.4,52.2,29.91,NNW,344,7.8,13.6,74,0.14,,,1.87,WUHU21623XXSP,2013-10-06 08:46:00,
2013-10-06 03:51:00,60.3,52.1,29.92,North,0,9.6,13.6,74,0.14,,,1.87,WUHU21623XXSP,2013-10-06 08:51:00,
2013-10-06 03:56:00,60.1,51.5,29.92,North,349,7.8,12.8,73,0.14,,,1.89,WUHU21623XXSP,2013-10-06 08:56:00,
2013-10-06 04:01:00,59.7,51.5,29.92,NNW,346,11.2,14.8,74,0.12,,,1.89,WUHU21623XXSP,2013-10-06 09:01:00,
2013-10-06 04:06:00,59.4,50.9,29.92,NNW,338,8.8,16.8,73,0.12,,,1.89,WUHU21623XXSP,2013-10-06 09:06:00,
2013-10-06 04:09:00,58.8,50.3,29.92,NNW,330,8.8,16.8,73,0.12,,,1.89,WUHU21623XXSP,2013-10-06 09:09:00,
2013-10-06 04:14:00,58.6,50.4,29.92,NNW,337,11.2,16.8,74,0.14,,,1.91,WUHU21623XXSP,2013-10-06 09:14:00,
2013-10-06 04:19:00,57.7,49.6,29.92,NNW,337,7.2,12.8,74,0.14,,,1.91,WUHU21623XXSP,2013-10-06 09:19:00,
2013-10-06 04:24:00,57.2,49.4,29.92,NNW,337,6.9,11.2,75,0.14,,,1.93,WUHU21623XXSP,2013-10-06 09:24:00,
2013-10-06 04:29:00,56.8,48.7,29.93,NW,307,3.3,10.1,74,0.12,,,1.93,WUHU21623XXSP,2013-10-06 09:29:00,
2013-10-06 04:34:00,56.5,48.4,29.93,WNW,301,3.3,10.1,74,0.14,,,1.95,WUHU21623XXSP,2013-10-06 09:34:00,
2013-10-06 04:39:00,56.3,48.2,29.93,NW,312,5.0,8.3,74,0.10,,,1.95,WUHU21623XXSP,2013-10-06 09:39:00,
2013-10-06 04:44:00,56.1,48.0,29.93,NNW,337,3.1,8.3,74,0.10,,,1.97,WUHU21623XXSP,2013-10-06 09:44:00,
2013-10-06 04:49:00,56.1,48.0,29.94,NW,306,3.3,7.8,74,0.10,,,1.97,WUHU21623XXSP,2013-10-06 09:49:00,
2013-10-06 04:54:00,55.9,47.8,29.94,NW,305,3.1,7.8,74,0.10,,,1.99,WUHU21623XXSP,2013-10-06 09:54:00,
2013-10-06 04:59:00,55.9,47.8,29.94,North,0,6.3,6.7,74,0.10,,,1.99,WUHU21623XXSP,2013-10-06 09:59:00,
2013-10-06 05:04:00,55.9,47.8,29.93,North,349,6.4,9.8,74,0.10,,,1.99,WUHU21623XXSP,2013-10-06 10:04:00,
2013-10-06 05:09:00,55.9,47.8,29.93,NNW,338,6.8,9.8,74,0.10,,,1.99,WUHU21623XXSP,2013-10-06 10:09:00,
2013-10-06 05:14:00,55.9,47.8,29.93,NNW,346,5.5,10.5,74,0.08,,,1.99,WUHU21623XXSP,2013-10-06 10:14:00,
2013-10-06 05:19:00,55.9,47.8,29.94,North,352,5.8,10.5,74,0.08,,,1.99,WUHU21623XXSP,2013-10-06 10:19:00,
2013-10-06 05:24:00,55.9,47.8,29.94,NNW,341,5.0,8.5,74,0.06,,,1.99,WUHU21623XXSP,2013-10-06 10:24:00,
2013-10-06 05:29:00,55.9,47.8,29.94,NNW,338,6.9,11.2,74,0.06,,,1.99,WUHU21623XXSP,2013-10-06 10:29:00,
2013-10-06 05:34:00,55.9,47.8,29.95,NNW,339,8.5,11.2,74,0.04,,,1.99,WUHU21623XXSP,2013-10-06 10:34:00,
2013-10-06 05:39:00,55.8,47.7,29.94,NNW,337,8.9,13.2,74,0.04,,,1.99,WUHU21623XXSP,2013-10-06 10:39:00,
2013-10-06 05:44:00,55.8,47.7,29.95,North,0,10.7,13.2,74,0.02,,,1.99,WUHU21623XXSP,2013-10-06 10:44:00,
2013-10-06 05:49:00,55.8,47.7,29.95,North,358,6.8,13.2,74,0.02,,,1.99,WUHU21623XXSP,2013-10-06 10:49:00,
2013-10-06 05:54:00,55.6,47.5,29.94,NNW,333,6.5,10.3,74,0.00,,,1.99,WUHU21623XXSP,2013-10-06 10:54:00,
2013-10-06 05:59:00,55.6,47.5,29.95,NNW,338,7.7,11.2,74,0.00,,,1.99,WUHU21623XXSP,2013-10-06 10:59:00,
2013-10-06 06:04:00,55.6,47.5,29.94,NNW,331,4.2,11.2,74,0.00,,,1.99,WUHU21623XXSP,2013-10-06 11:04:00,
2013-10-06 06:09:00,55.6,47.5,29.95,NW,322,3.7,8.5,74,0.00,,,1.99,WUHU21623XXSP,2013-10-06 11:09:00,
2013-10-06 06:14:00,55.6,47.5,29.95,NW,315,5.4,7.8,74,0.00,,,1.99,WUHU21623XXSP,2013-10-06 11:14:00,
2013-10-06 06:19:00,55.6,47.5,29.95,WNW,292,4.3,7.8,74,0.00,,,1.99,WUHU21623XXSP,2013-10-06 11:19:00,
2013-10-06 06:24:00,55.6,47.5,29.95,NW,317,2.5,6.7,74,0.00,,,1.99,WUHU21623XXSP,2013-10-06 11:24:00,
2013-10-06 06:29:00,55.8,47.7,29.95,NW,323,5.1,7.2,74,0.00,,,1.99,WUHU21623XXSP,2013-10-06 11:29:00,
2013-10-06 06:34:00,55.8,47.7,29.95,NNW,337,6.5,7.6,74,0.00,,,1.99,WUHU21623XXSP,2013-10-06 11:34:00,
2013-10-06 06:39:00,55.8,47.7,29.95,NW,320,3.0,10.7,74,0.00,,,1.99,WUHU21623XXSP,2013-10-06 11:39:00,
2013-10-06 06:44:00,55.8,47.7,29.96,NW,325,4.4,10.7,74,0.00,,,1.99,WUHU21623XXSP,2013-10-06 11:44:00,
2013-10-06 06:49:00,55.6,47.5,29.96,NNW,328,3.5,7.2,74,0.00,,,1.99,WUHU21623XXSP,2013-10-06 11:49:00,
2013-10-06 06:54:00,55.6,47.5,29.95,NNW,334,3.8,7.6,74,0.00,,,1.99,WUHU21623XXSP,2013-10-06 11:54:00,
2013-10-06 06:59:00,55.6,47.2,29.96,NW,315,3.8,7.8,73,0.00,,,1.99,WUHU21623XXSP,2013-10-06 11:59:00,
2013-10-06 07:04:00,55.6,47.2,29.96,NW,315,3.6,7.8,73,0.00,,,1.99,WUHU21623XXSP,2013-10-06 12:04:00,
2013-10-06 07:09:00,55.6,47.2,29.96,North,0,6.0,7.4,73,0.00,,,1.99,WUHU21623XXSP,2013-10-06 12:09:00,
2013-10-06 07:14:00,55.6,47.2,29.96,NW,315,4.0,6.9,73,0.00,,,1.99,WUHU21623XXSP,2013-10-06 12:14:00,
2013-10-06 07:19:00,55.6,47.2,29.96,NW,312,1.3,6.5,73,0.00,,,1.99,WUHU21623XXSP,2013-10-06 12:19:00,
2013-10-06 07:24:00,55.6,47.2,29.96,West,270,1.8,5.4,73,0.00,,,1.99,WUHU21623XXSP,2013-10-06 12:24:00,
2013-10-06 07:29:00,55.6,47.2,29.95,WNW,292,1.1,1.8,73,0.00,,,1.99,WUHU21623XXSP,2013-10-06 12:29:00,
2013-10-06 07:34:00,55.6,47.5,29.95,WNW,294,1.9,3.4,74,0.00,,,1.99,WUHU21623XXSP,2013-10-06 12:34:00,
2013-10-06 07:39:00,55.8,47.7,29.95,WNW,297,1.3,3.4,74,0.00,,,1.99,WUHU21623XXSP,2013-10-06 12:39:00,
2013-10-06 07:44:00,55.9,47.8,29.96,West,268,1.0,2.7,74,0.00,,,1.99,WUHU21623XXSP,2013-10-06 12:44:00,
2013-10-06 07:49:00,55.9,47.8,29.96,WNW,282,1.0,3.1,74,0.00,,,1.99,WUHU21623XXSP,2013-10-06 12:49:00,
2013-10-06 07:54:00,56.1,48.0,29.96,WNW,285,2.2,3.8,74,0.00,,,1.99,WUHU21623XXSP,2013-10-06 12:54:00,
2013-10-06 07:59:00,56.1,48.0,29.96,WNW,292,3.0,4.5,74,0.00,,,1.99,WUHU21623XXSP,2013-10-06 12:59:00,
2013-10-06 08:04:00,56.1,48.0,29.96,WNW,298,2.2,6.7,74,0.00,,,1.99,WUHU21623XXSP,2013-10-06 13:04:00,
2013-10-06 08:09:00,56.1,48.0,29.96,WNW,292,1.2,6.7,74,0.00,,,1.99,WUHU21623XXSP,2013-10-06 13:09:00,
2013-10-06 08:14:00,56.3,48.2,29.96,NW,315,3.8,6.5,74,0.00,,,1.99,WUHU21623XXSP,2013-10-06 13:14:00,
2013-10-06 08:19:00,56.5,48.4,29.96,WNW,290,1.8,6.5,74,0.00,,,1.99,WUHU21623XXSP,2013-10-06 13:19:00,
2013-10-06 08:24:00,56.8,48.7,29.96,WNW,292,3.8,6.3,74,0.00,,,1.99,WUHU21623XXSP,2013-10-06 13:24:00,
2013-10-06 08:29:00,56.8,48.7,29.96,WSW,247,0.9,6.3,74,0.00,,,1.99,WUHU21623XXSP,2013-10-06 13:29:00,
2013-10-06 08:34:00,56.8,48.7,29.96,West,270,1.4,4.3,74,0.00,,,1.99,WUHU21623XXSP,2013-10-06 13:34:00,
2013-10-06 08:39:00,56.8,48.7,29.95,NW,315,0.0,3.1,74,0.00,,,1.99,WUHU21623XXSP,2013-10-06 13:39:00,
2013-10-06 08:44:00,57.0,48.9,29.95,WNW,283,0.8,1.6,74,0.00,,,1.99,WUHU21623XXSP,2013-10-06 13:44:00,
2013-10-06 08:49:00,57.0,48.9,29.96,WNW,292,0.9,1.8,74,0.00,,,1.99,WUHU21623XXSP,2013-10-06 13:49:00,
2013-10-06 08:54:00,57.4,49.3,29.96,West,270,0.0,1.8,74,0.00,,,1.99,WUHU21623XXSP,2013-10-06 13:54:00,
2013-10-06 08:59:00,57.4,49.3,29.96,WSW,248,1.9,3.6,74,0.00,,,1.99,WUHU21623XXSP,2013-10-06 13:59:00,
2013-10-06 09:04:00,57.6,49.5,29.96,WNW,292,2.2,3.6,74,0.00,,,1.99,WUHU21623XXSP,2013-10-06 14:04:00,
2013-10-06 09:09:00,57.6,49.5,29.95,NW,315,0.7,2.7,74,0.00,,,1.99,WUHU21623XXSP,2013-10-06 14:09:00,
2013-10-06 09:14:00,57.7,49.6,29.95,NW,315,1.1,2.7,74,0.00,,,1.99,WUHU21623XXSP,2013-10-06 14:14:00,
2013-10-06 09:19:00,57.7,49.6,29.95,West,270,2.2,2.2,74,0.00,,,1.99,WUHU21623XXSP,2013-10-06 14:19:00,
2013-10-06 09:24:00,57.9,49.8,29.95,West,270,0.9,2.9,74,0.00,,,1.99,WUHU21623XXSP,2013-10-06 14:24:00,
2013-10-06 09:29:00,58.3,50.2,29.95,WSW,255,1.6,2.9,74,0.00,,,1.99,WUHU21623XXSP,2013-10-06 14:29:00,
2013-10-06 09:34:00,58.5,50.3,29.95,WSW,254,4.0,5.6,74,0.00,,,1.99,WUHU21623XXSP,2013-10-06 14:34:00,
2013-10-06 09:39:00,58.6,50.4,29.95,WSW,247,5.6,5.6,74,0.00,,,1.99,WUHU21623XXSP,2013-10-06 14:39:00,
2013-10-06 09:44:00,58.8,51.0,29.95,WSW,247,4.3,5.6,75,0.00,,,1.99,WUHU21623XXSP,2013-10-06 14:44:00,
2013-10-06 09:49:00,58.8,51.0,29.95,West,259,2.1,5.4,75,0.00,,,1.99,WUHU21623XXSP,2013-10-06 14:49:00,
2013-10-06 09:54:00,58.8,51.3,29.95,West,262,1.6,5.8,76,0.00,,,1.99,WUHU21623XXSP,2013-10-06 14:54:00,
2013-10-06 09:59:00,58.8,51.3,29.95,WSW,258,2.6,5.8,76,0.00,,,1.99,WUHU21623XXSP,2013-10-06 14:59:00,
2013-10-06 10:04:00,59.0,51.5,29.95,WNW,303,3.6,6.7,76,0.00,,,1.99,WUHU21623XXSP,2013-10-06 15:04:00,
2013-10-06 10:09:00,59.2,52.1,29.94,NW,315,5.4,7.6,77,0.00,,,1.99,WUHU21623XXSP,2013-10-06 15:09:00,
2013-10-06 10:14:00,59.5,52.4,29.94,North,0,3.1,6.9,77,0.00,,,1.99,WUHU21623XXSP,2013-10-06 15:14:00,
2013-10-06 10:19:00,59.7,52.6,29.94,NNW,337,7.4,8.7,77,0.00,,,1.99,WUHU21623XXSP,2013-10-06 15:19:00,
2013-10-06 10:24:00,59.7,52.9,29.94,NNW,329,5.4,8.7,78,0.00,,,1.99,WUHU21623XXSP,2013-10-06 15:24:00,
2013-10-06 10:29:00,59.9,53.4,29.94,WNW,296,3.5,9.4,79,0.00,,,1.99,WUHU21623XXSP,2013-10-06 15:29:00,
2013-10-06 10:34:00,59.9,53.4,29.95,NW,306,4.2,9.4,79,0.00,,,1.99,WUHU21623XXSP,2013-10-06 15:34:00,
2013-10-06 10:39:00,60.1,53.6,29.94,West,270,4.7,6.7,79,0.00,,,1.99,WUHU21623XXSP,2013-10-06 15:39:00,
2013-10-06 10:44:00,60.1,53.6,29.95,WNW,292,2.9,6.3,79,0.00,,,1.99,WUHU21623XXSP,2013-10-06 15:44:00,
2013-10-06 10:49:00,60.4,53.9,29.95,WSW,256,2.2,6.3,79,0.00,,,1.99,WUHU21623XXSP,2013-10-06 15:49:00,
2013-10-06 10:54:00,60.8,54.3,29.95,West,270,3.4,5.1,79,0.00,,,1.99,WUHU21623XXSP,2013-10-06 15:54:00,
2013-10-06 10:59:00,61.3,54.8,29.95,WSW,247,6.5,6.5,79,0.00,,,1.99,WUHU21623XXSP,2013-10-06 15:59:00,
2013-10-06 11:04:00,61.9,55.4,29.95,West,260,1.7,6.5,79,0.00,,,1.99,WUHU21623XXSP,2013-10-06 16:04:00,
2013-10-06 11:09:00,62.4,55.9,29.95,NW,317,4.5,6.7,79,0.00,,,1.99,WUHU21623XXSP,2013-10-06 16:09:00,
2013-10-06 11:14:00,62.6,55.7,29.94,NW,315,5.4,10.5,78,0.00,,,1.99,WUHU21623XXSP,2013-10-06 16:14:00,
2013-10-06 11:19:00,62.8,56.3,29.93,NW,326,4.2,10.5,79,0.00,,,1.99,WUHU21623XXSP,2013-10-06 16:19:00,
2013-10-06 11:24:00,63.1,56.2,29.93,NNW,341,3.1,6.9,78,0.00,,,1.99,WUHU21623XXSP,2013-10-06 16:24:00,
2013-10-06 11:29:00,63.5,56.6,29.93,NW,315,6.0,6.5,78,0.00,,,1.99,WUHU21623XXSP,2013-10-06 16:29:00,
2013-10-06 11:34:00,64.0,56.7,29.93,NW,313,3.5,6.7,77,0.00,,,1.99,WUHU21623XXSP,2013-10-06 16:34:00,
2013-10-06 11:39:00,64.2,56.6,29.93,NNW,337,5.8,6.7,76,0.00,,,1.99,WUHU21623XXSP,2013-10-06 16:39:00,
2013-10-06 11:44:00,64.2,56.9,29.93,WSW,247,3.1,6.5,77,0.00,,,1.99,WUHU21623XXSP,2013-10-06 16:44:00,
2013-10-06 11:49:00,64.6,57.0,29.93,WNW,298,2.3,6.3,76,0.00,,,1.99,WUHU21623XXSP,2013-10-06 16:49:00,
2013-10-06 11:54:00,64.4,56.4,29.92,WSW,247,3.8,6.3,75,0.00,,,1.99,WUHU21623XXSP,2013-10-06 16:54:00,
2013-10-06 11:59:00,64.2,56.2,29.92,WSW,256,2.8,5.1,75,0.00,,,1.99,WUHU21623XXSP,2013-10-06 16:59:00,
2013-10-06 12:04:00,64.6,56.3,29.92,NW,310,2.2,5.1,74,0.00,,,1.99,WUHU21623XXSP,2013-10-06 17:04:00,
2013-10-06 12:09:00,65.1,56.7,29.92,WNW,292,4.0,5.4,74,0.00,,,1.99,WUHU21623XXSP,2013-10-06 17:09:00,
2013-10-06 12:14:00,65.1,56.4,29.92,WNW,292,4.5,6.9,73,0.00,,,1.99,WUHU21623XXSP,2013-10-06 17:14:00,
2013-10-06 12:19:00,65.3,56.6,29.92,NNW,337,4.9,6.9,73,0.00,,,1.99,WUHU21623XXSP,2013-10-06 17:19:00,
2013-10-06 12:24:00,65.7,56.6,29.93,WSW,247,3.4,6.7,72,0.00,,,1.99,WUHU21623XXSP,2013-10-06 17:24:00,
2013-10-06 12:29:00,66.0,56.5,29.92,South,180,2.0,6.3,71,0.00,,,1.99,WUHU21623XXSP,2013-10-06 17:29:00,
2013-10-06 12:34:00,66.4,56.5,29.92,WSW,257,1.3,3.8,70,0.00,,,1.99,WUHU21623XXSP,2013-10-06 17:34:00,
2013-10-06 12:39:00,66.9,56.6,29.92,WSW,247,2.7,6.3,69,0.00,,,1.99,WUHU21623XXSP,2013-10-06 17:39:00,
2013-10-06 12:44:00,67.3,56.9,29.92,West,270,2.2,6.3,69,0.00,,,1.99,WUHU21623XXSP,2013-10-06 17:44:00,
2013-10-06 12:49:00,67.8,57.4,29.92,SSW,202,4.3,6.0,69,0.00,,,1.99,WUHU21623XXSP,2013-10-06 17:49:00,
2013-10-06 12:54:00,68.4,57.2,29.92,SW,225,8.9,8.9,67,0.00,,,1.99,WUHU21623XXSP,2013-10-06 17:54:00,
2013-10-06 12:59:00,68.4,56.8,29.92,SW,223,3.8,8.9,66,0.00,,,1.99,WUHU21623XXSP,2013-10-06 17:59:00,
2013-10-06 13:04:00,68.5,57.3,29.92,WSW,247,3.1,7.4,67,0.00,,,1.99,WUHU21623XXSP,2013-10-06 18:04:00,
2013-10-06 13:09:00,68.7,56.2,29.92,SW,232,6.5,7.6,64,0.00,,,1.99,WUHU21623XXSP,2013-10-06 18:09:00,
2013-10-06 13:14:00,68.7,55.8,29.91,WSW,247,5.6,12.3,63,0.00,,,1.99,WUHU21623XXSP,2013-10-06 18:14:00,
2013-10-06 13:19:00,69.1,56.2,29.91,SW,225,6.5,12.3,63,0.00,,,1.99,WUHU21623XXSP,2013-10-06 18:19:00,
2013-10-06 13:24:00,69.6,56.6,29.91,WSW,243,4.3,6.5,63,0.00,,,1.99,WUHU21623XXSP,2013-10-06 18:24:00,
2013-10-06 13:29:00,70.0,56.1,29.91,WNW,302,3.6,6.5,61,0.00,,,1.99,WUHU21623XXSP,2013-10-06 18:29:00,
2013-10-06 13:34:00,70.2,55.8,29.91,WSW,237,6.0,9.6,60,0.00,,,1.99,WUHU21623XXSP,2013-10-06 18:34:00,
2013-10-06 13:39:00,69.6,55.7,29.90,WSW,247,9.4,9.8,61,0.00,,,1.99,WUHU21623XXSP,2013-10-06 18:39:00,
2013-10-06 13:44:00,69.6,55.7,29.90,WSW,247,4.9,9.8,61,0.00,,,1.99,WUHU21623XXSP,2013-10-06 18:44:00,
2013-10-06 13:49:00,70.0,56.6,29.90,WNW,292,3.8,8.3,62,0.00,,,1.99,WUHU21623XXSP,2013-10-06 18:49:00,
2013-10-06 13:54:00,70.5,57.0,29.90,NW,315,8.3,8.9,62,0.00,,,1.99,WUHU21623XXSP,2013-10-06 18:54:00,
2013-10-06 13:59:00,70.9,57.0,29.90,West,273,2.0,8.9,61,0.00,,,1.99,WUHU21623XXSP,2013-10-06 18:59:00,
2013-10-06 14:04:00,71.2,57.7,29.90,WSW,246,5.4,9.8,62,0.00,,,1.99,WUHU21623XXSP,2013-10-06 19:04:00,
2013-10-06 14:09:00,71.4,57.4,29.90,SSW,202,8.9,9.8,61,0.00,,,1.99,WUHU21623XXSP,2013-10-06 19:09:00,
2013-10-06 14:14:00,71.4,57.4,29.89,West,260,3.6,9.8,61,0.00,,,1.99,WUHU21623XXSP,2013-10-06 19:14:00,
2013-10-06 14:19:00,72.0,57.5,29.89,WNW,290,5.8,9.8,60,0.00,,,1.99,WUHU21623XXSP,2013-10-06 19:19:00,
2013-10-06 14:24:00,72.1,57.2,29.89,NW,315,10.7,11.0,59,0.00,,,1.99,WUHU21623XXSP,2013-10-06 19:24:00,
2013-10-06 14:29:00,72.1,56.7,29.88,NW,306,6.3,11.0,58,0.00,,,1.99,WUHU21623XXSP,2013-10-06 19:29:00,
2013-10-06 14:34:00,71.8,56.4,29.88,WSW,247,7.2,10.7,58,0.00,,,1.99,WUHU21623XXSP,2013-10-06 19:34:00,
2013-10-06 14:39:00,71.4,56.0,29.88,West,265,4.9,8.7,58,0.00,,,1.99,WUHU21623XXSP,2013-10-06 19:39:00,
2013-10-06 14:44:00,71.2,56.3,29.88,WNW,298,4.9,10.5,59,0.00,,,1.99,WUHU21623XXSP,2013-10-06 19:44:00,
2013-10-06 14:49:00,71.2,56.8,29.88,WSW,247,6.9,10.5,60,0.00,,,1.99,WUHU21623XXSP,2013-10-06 19:49:00,
2013-10-06 14:54:00,71.2,56.3,29.89,SW,225,7.8,14.1,59,0.00,,,1.99,WUHU21623XXSP,2013-10-06 19:54:00,
2013-10-06 14:59:00,70.9,56.5,29.89,SW,223,5.6,14.1,60,0.00,,,1.99,WUHU21623XXSP,2013-10-06 19:59:00,
2013-10-06 15:04:00,70.9,56.5,29.89,NW,304,6.8,9.6,60,0.00,,,1.99,WUHU21623XXSP,2013-10-06 20:04:00,
2013-10-06 15:09:00,70.7,56.3,29.88,WNW,300,4.8,10.3,60,0.00,,,1.99,WUHU21623XXSP,2013-10-06 20:09:00,
2013-10-06 15:14:00,70.5,55.7,29.88,WNW,284,6.3,11.0,59,0.00,,,1.99,WUHU21623XXSP,2013-10-06 20:14:00,
2013-10-06 15:19:00,70.3,55.5,29.88,West,270,7.6,11.0,59,0.00,,,1.99,WUHU21623XXSP,2013-10-06 20:19:00,
2013-10-06 15:24:00,70.3,55.5,29.87,West,270,6.3,8.9,59,0.00,,,1.99,WUHU21623XXSP,2013-10-06 20:24:00,
2013-10-06 15:29:00,70.9,56.5,29.88,West,270,4.5,9.2,60,0.00,,,1.99,WUHU21623XXSP,2013-10-06 20:29:00,
2013-10-06 15:34:00,71.4,56.0,29.88,WSW,255,9.7,16.3,58,0.00,,,1.99,WUHU21623XXSP,2013-10-06 20:34:00,
2013-10-06 15:39:00,71.6,55.7,29.88,WSW,246,5.8,16.3,57,0.00,,,1.99,WUHU21623XXSP,2013-10-06 20:39:00,
2013-10-06 15:45:00,71.2,55.3,29.88,NW,315,4.3,10.1,57,0.00,,,1.99,WUHU21623XXSP,2013-10-06 20:45:00,
2013-10-06 15:50:00,70.9,55.1,29.87,West,270,6.3,7.4,57,0.00,,,1.99,WUHU21623XXSP,2013-10-06 20:50:00,
2013-10-06 15:55:00,70.7,54.4,29.88,WNW,292,6.3,12.8,56,0.00,,,1.99,WUHU21623XXSP,2013-10-06 20:55:00,
2013-10-06 16:00:00,70.5,54.2,29.87,WNW,292,6.7,14.1,56,0.00,,,1.99,WUHU21623XXSP,2013-10-06 21:00:00,
2013-10-06 16:05:00,70.3,54.0,29.88,NW,315,5.4,14.1,56,0.00,,,1.99,WUHU21623XXSP,2013-10-06 21:05:00,
2013-10-06 16:10:00,70.0,53.7,29.87,WNW,288,5.2,10.7,56,0.00,,,1.99,WUHU21623XXSP,2013-10-06 21:10:00,
2013-10-06 16:14:00,69.6,53.8,29.87,NW,304,6.9,11.0,57,0.00,,,1.99,WUHU21623XXSP,2013-10-06 21:14:00,
2013-10-06 16:19:00,69.6,53.8,29.87,NW,315,5.8,11.0,57,0.00,,,1.99,WUHU21623XXSP,2013-10-06 21:19:00,
2013-10-06 16:24:00,69.3,53.6,29.88,NW,315,7.6,9.2,57,0.00,,,1.99,WUHU21623XXSP,2013-10-06 21:24:00,
2013-10-06 16:29:00,69.1,53.4,29.87,NW,315,8.7,14.1,57,0.00,,,1.99,WUHU21623XXSP,2013-10-06 21:29:00,
2013-10-06 16:34:00,68.9,52.7,29.88,NW,315,6.7,14.1,56,0.00,,,1.99,WUHU21623XXSP,2013-10-06 21:34:00,
2013-10-06 16:39:00,68.4,52.7,29.88,NW,310,3.3,10.5,57,0.00,,,1.99,WUHU21623XXSP,2013-10-06 21:39:00,
2013-10-06 16:44:00,67.8,52.6,29.88,NW,315,12.1,12.1,58,0.00,,,1.99,WUHU21623XXSP,2013-10-06 21:44:00,
2013-10-06 16:49:00,67.6,52.4,29.88,NW,305,4.0,12.1,58,0.00,,,1.99,WUHU21623XXSP,2013-10-06 21:49:00,
2013-10-06 16:54:00,67.6,52.9,29.88,WNW,292,6.3,12.1,59,0.00,,,1.99,WUHU21623XXSP,2013-10-06 21:54:00,
2013-10-06 16:59:00,67.8,53.1,29.87,WNW,292,6.7,9.6,59,0.00,,,1.99,WUHU21623XXSP,2013-10-06 21:59:00,
2013-10-06 17:04:00,68.2,53.5,29.87,WNW,292,8.9,9.6,59,0.00,,,1.99,WUHU21623XXSP,2013-10-06 22:04:00,
2013-10-06 17:09:00,68.2,53.5,29.87,WNW,300,6.4,11.6,59,0.00,,,1.99,WUHU21623XXSP,2013-10-06 22:09:00,
2013-10-06 17:14:00,68.0,52.8,29.88,WNW,293,4.5,11.6,58,0.00,,,1.99,WUHU21623XXSP,2013-10-06 22:14:00,
2013-10-06 17:19:00,67.6,52.4,29.87,WNW,292,6.3,9.4,58,0.00,,,1.99,WUHU21623XXSP,2013-10-06 22:19:00,
2013-10-06 17:24:00,67.1,52.4,29.88,NW,315,4.3,9.4,59,0.00,,,1.99,WUHU21623XXSP,2013-10-06 22:24:00,
2013-10-06 17:29:00,66.6,52.0,29.88,WNW,295,5.3,8.5,59,0.00,,,1.99,WUHU21623XXSP,2013-10-06 22:29:00,
2013-10-06 17:34:00,66.2,52.1,29.88,WNW,289,3.6,9.6,60,0.00,,,1.99,WUHU21623XXSP,2013-10-06 22:34:00,
2013-10-06 17:39:00,66.0,51.9,29.88,WNW,297,4.4,9.6,60,0.00,,,1.99,WUHU21623XXSP,2013-10-06 22:39:00,
2013-10-06 17:44:00,66.0,52.3,29.89,West,274,2.0,7.4,61,0.00,,,1.99,WUHU21623XXSP,2013-10-06 22:44:00,
2013-10-06 17:49:00,66.0,52.3,29.88,WNW,292,5.1,7.2,61,0.00,,,1.99,WUHU21623XXSP,2013-10-06 22:49:00,
2013-10-06 17:54:00,66.0,52.3,29.89,WNW,283,2.0,7.4,61,0.00,,,1.99,WUHU21623XXSP,2013-10-06 22:54:00,
2013-10-06 17:59:00,66.0,52.3,29.90,WNW,292,6.9,7.4,61,0.00,,,1.99,WUHU21623XXSP,2013-10-06 22:59:00,
2013-10-06 18:04:00,65.8,52.6,29.90,WNW,283,2.4,6.9,62,0.00,,,1.99,WUHU21623XXSP,2013-10-06 23:04:00,
2013-10-06 18:09:00,65.7,52.0,29.90,WNW,298,3.4,6.5,61,0.00,,,1.99,WUHU21623XXSP,2013-10-06 23:09:00,
2013-10-06 18:14:00,65.1,51.5,29.90,NNW,337,8.3,8.3,61,0.00,,,1.99,WUHU21623XXSP,2013-10-06 23:14:00,
2013-10-06 18:19:00,64.9,51.3,29.90,NW,317,2.8,8.3,61,0.00,,,1.99,WUHU21623XXSP,2013-10-06 23:19:00,
2013-10-06 18:24:00,64.2,50.6,29.90,WNW,292,4.3,7.4,61,0.00,,,1.99,WUHU21623XXSP,2013-10-06 23:24:00,
2013-10-06 18:29:00,64.0,50.9,29.90,WNW,292,2.3,6.7,62,0.00,,,1.99,WUHU21623XXSP,2013-10-06 23:29:00,
2013-10-06 18:34:00,63.7,50.6,29.90,West,270,4.3,5.6,62,0.00,,,1.99,WUHU21623XXSP,2013-10-06 23:34:00,
2013-10-06 18:39:00,63.3,50.6,29.90,WNW,298,3.2,6.0,63,0.00,,,1.99,WUHU21623XXSP,2013-10-06 23:39:00,
2013-10-06 18:44:00,63.1,50.5,29.90,NW,310,2.3,6.0,63,0.00,,,1.99,WUHU21623XXSP,2013-10-06 23:44:00,
2013-10-06 18:49:00,62.8,50.6,29.90,WNW,292,2.9,5.8,64,0.00,,,1.99,WUHU21623XXSP,2013-10-06 23:49:00,
2013-10-06 18:54:00,62.4,50.2,29.90,WNW,296,1.6,6.0,64,0.00,,,1.99,WUHU21623XXSP,2013-10-06 23:54:00,
2013-10-06 18:59:00,62.1,49.9,29.90,NW,308,1.6,6.0,64,0.00,,,1.99,WUHU21623XXSP,2013-10-06 23:59:00,
2013-10-06 19:04:00,61.7,50.0,29.91,West,270,1.3,2.7,65,0.00,,,1.99,WUHU21623XXSP,2013-10-07 00:04:00,
2013-10-06 19:09:00,61.5,49.8,29.90,WNW,292,1.1,2.5,65,0.00,,,1.99,WUHU21623XXSP,2013-10-07 00:09:00,
2013-10-06 19:14:00,61.3,50.0,29.91,NW,305,1.6,3.8,66,0.00,,,1.99,WUHU21623XXSP,2013-10-07 00:14:00,
2013-10-06 19:19:00,61.0,50.1,29.91,NW,315,4.0,5.1,67,0.00,,,1.99,WUHU21623XXSP,2013-10-07 00:19:00,
2013-10-06 19:24:00,61.0,50.1,29.91,WNW,292,4.9,5.6,67,0.00,,,1.99,WUHU21623XXSP,2013-10-07 00:24:00,
2013-10-06 19:29:00,60.6,49.7,29.91,WNW,294,2.7,6.7,67,0.00,,,1.99,WUHU21623XXSP,2013-10-07 00:29:00,
2013-10-06 19:34:00,60.6,49.7,29.91,NW,315,3.3,6.7,67,0.00,,,1.99,WUHU21623XXSP,2013-10-07 00:34:00,
2013-10-06 19:39:00,60.4,49.9,29.91,NW,315,2.2,5.6,68,0.00,,,1.99,WUHU21623XXSP,2013-10-07 00:39:00,
2013-10-06 19:44:00,60.3,49.8,29.92,NW,306,4.0,8.7,68,0.00,,,1.99,WUHU21623XXSP,2013-10-07 00:44:00,
2013-10-06 19:49:00,60.1,49.6,29.92,WNW,292,2.2,8.7,68,0.00,,,1.99,WUHU21623XXSP,2013-10-07 00:49:00,
2013-10-06 19:54:00,60.1,50.0,29.92,NW,312,2.6,6.3,69,0.00,,,1.99,WUHU21623XXSP,2013-10-07 00:54:00,
2013-10-06 19:59:00,59.9,49.8,29.92,NW,316,1.3,6.3,69,0.00,,,1.99,WUHU21623XXSP,2013-10-07 00:59:00,
2013-10-06 20:04:00,59.7,49.7,29.93,NW,315,5.8,6.0,69,0.00,,,1.99,WUHU21623XXSP,2013-10-07 01:04:00,
2013-10-06 20:09:00,59.5,49.8,29.93,NNW,337,7.2,7.8,70,0.00,,,1.99,WUHU21623XXSP,2013-10-07 01:09:00,
2013-10-06 20:14:00,59.5,49.8,29.92,NW,315,7.8,10.7,70,0.00,,,1.99,WUHU21623XXSP,2013-10-07 01:14:00,
2013-10-06 20:19:00,59.5,49.8,29.93,NNW,337,11.0,11.6,70,0.00,,,1.99,WUHU21623XXSP,2013-10-07 01:19:00,
2013-10-06 20:24:00,59.7,49.7,29.93,NNW,337,4.9,12.8,69,0.00,,,1.99,WUHU21623XXSP,2013-10-07 01:24:00,
2013-10-06 20:29:00,59.7,49.7,29.94,NNW,329,6.7,12.8,69,0.00,,,1.99,WUHU21623XXSP,2013-10-07 01:29:00,
2013-10-06 20:34:00,59.5,49.5,29.94,NNW,339,8.6,11.2,69,0.00,,,1.99,WUHU21623XXSP,2013-10-07 01:34:00,
2013-10-06 20:39:00,59.5,49.5,29.94,NNW,331,4.9,11.9,69,0.00,,,1.99,WUHU21623XXSP,2013-10-07 01:39:00,
2013-10-06 20:44:00,59.4,49.4,29.94,NW,326,9.6,12.5,69,0.00,,,1.99,WUHU21623XXSP,2013-10-07 01:44:00,
2013-10-06 20:49:00,59.2,49.2,29.95,NNW,337,13.6,13.6,69,0.00,,,1.99,WUHU21623XXSP,2013-10-07 01:49:00,
2013-10-06 20:54:00,59.2,49.2,29.95,NNW,336,7.3,14.1,69,0.00,,,1.99,WUHU21623XXSP,2013-10-07 01:54:00,
2013-10-06 20:59:00,58.8,48.8,29.95,NNW,340,6.7,15.4,69,0.00,,,1.99,WUHU21623XXSP,2013-10-07 01:59:00,
2013-10-06 21:04:00,58.8,49.2,29.95,NNW,337,9.4,15.4,70,0.00,,,1.99,WUHU21623XXSP,2013-10-07 02:04:00,
2013-10-06 21:09:00,58.8,49.2,29.95,NNW,337,10.7,12.8,70,0.00,,,1.99,WUHU21623XXSP,2013-10-07 02:09:00,
2013-10-06 21:15:00,58.8,49.2,29.96,NNW,347,7.7,16.8,70,0.00,,,1.99,WUHU21623XXSP,2013-10-07 02:15:00,
2013-10-06 21:20:00,58.5,48.9,29.96,NNW,337,11.9,16.8,70,0.00,,,1.99,WUHU21623XXSP,2013-10-07 02:20:00,
2013-10-06 21:25:00,58.3,48.7,29.96,North,0,10.1,14.5,70,0.00,,,1.99,WUHU21623XXSP,2013-10-07 02:25:00,
2013-10-06 21:30:00,58.1,48.5,29.96,NNW,337,7.6,13.0,70,0.00,,,1.99,WUHU21623XXSP,2013-10-07 02:30:00,
2013-10-06 21:34:00,57.9,48.3,29.97,North,0,8.1,12.8,70,0.00,,,1.99,WUHU21623XXSP,2013-10-07 02:34:00,
2013-10-06 21:40:00,57.7,48.1,29.97,NNW,337,9.6,12.8,70,0.00,,,1.99,WUHU21623XXSP,2013-10-07 02:40:00,
2013-10-06 21:45:00,57.7,48.5,29.97,NNW,343,5.9,11.2,71,0.00,,,1.99,WUHU21623XXSP,2013-10-07 02:45:00,
2013-10-06 21:50:00,57.4,48.2,29.98,NNW,337,7.3,10.7,71,0.00,,,1.99,WUHU21623XXSP,2013-10-07 02:50:00,
2013-10-06 21:55:00,57.2,48.0,29.97,NNW,344,5.5,11.4,71,0.00,,,1.99,WUHU21623XXSP,2013-10-07 02:55:00,
2013-10-06 22:00:00,57.0,47.8,29.98,North,351,5.1,11.4,71,0.00,,,1.99,WUHU21623XXSP,2013-10-07 03:00:00,
2013-10-06 22:05:00,57.0,48.2,29.98,NNW,337,8.3,10.5,72,0.00,,,1.99,WUHU21623XXSP,2013-10-07 03:05:00,
2013-10-06 22:10:00,56.8,47.6,29.98,NNW,330,4.3,10.5,71,0.00,,,1.99,WUHU21623XXSP,2013-10-07 03:10:00,
2013-10-06 22:15:00,56.5,47.7,29.99,NNW,337,8.1,8.9,72,0.00,,,1.99,WUHU21623XXSP,2013-10-07 03:15:00,
2013-10-06 22:19:00,56.5,47.7,29.99,North,351,4.1,8.9,72,0.00,,,1.99,WUHU21623XXSP,2013-10-07 03:19:00,
2013-10-06 22:24:00,56.1,47.3,30.00,NNW,337,5.8,7.2,72,0.00,,,1.99,WUHU21623XXSP,2013-10-07 03:24:00,
2013-10-06 22:29:00,55.9,47.5,29.99,NNW,337,8.1,9.4,73,0.00,,,1.99,WUHU21623XXSP,2013-10-07 03:29:00,
2013-10-06 22:34:00,55.9,47.5,29.99,NNW,338,3.7,9.4,73,0.00,,,1.99,WUHU21623XXSP,2013-10-07 03:34:00,
2013-10-06 22:39:00,55.8,47.4,29.99,NNW,343,4.2,9.4,73,0.00,,,1.99,WUHU21623XXSP,2013-10-07 03:39:00,
2013-10-06 22:44:00,55.6,47.2,29.99,North,350,5.2,9.4,73,0.00,,,1.99,WUHU21623XXSP,2013-10-07 03:44:00,
2013-10-06 22:49:00,55.6,47.2,30.00,NW,315,8.5,12.1,73,0.00,,,1.99,WUHU21623XXSP,2013-10-07 03:49:00,
2013-10-06 22:54:00,55.4,47.0,30.00,NNW,342,5.5,12.1,73,0.00,,,1.99,WUHU21623XXSP,2013-10-07 03:54:00,
2013-10-06 22:59:00,55.2,46.8,30.00,NW,315,4.9,10.1,73,0.00,,,1.99,WUHU21623XXSP,2013-10-07 03:59:00,
2013-10-06 23:01:00,55.2,46.8,30.00,NW,315,4.7,8.5,73,0.00,,,1.99,WUHU21623XXSP,2013-10-07 04:01:00,
2013-10-06 23:03:00,55.0,46.6,30.00,North,0,5.1,8.5,73,0.00,,,1.99,WUHU21623XXSP,2013-10-07 04:03:00,
2013-10-06 23:08:00,54.9,46.9,30.00,North,0,6.3,6.9,74,0.00,,,1.99,WUHU21623XXSP,2013-10-07 04:08:00,
2013-10-06 23:13:00,54.5,46.5,30.00,North,0,4.3,6.9,74,0.00,,,1.99,WUHU21623XXSP,2013-10-07 04:13:00,
2013-10-06 23:18:00,54.3,46.6,29.99,NW,315,2.5,6.3,75,0.00,,,1.99,WUHU21623XXSP,2013-10-07 04:18:00,
2013-10-06 23:23:00,54.1,46.4,30.00,NNW,335,2.0,6.3,75,0.00,,,1.99,WUHU21623XXSP,2013-10-07 04:23:00,
2013-10-06 23:28:00,54.1,46.4,30.00,NW,326,2.6,5.1,75,0.00,,,1.99,WUHU21623XXSP,2013-10-07 04:28:00,
2013-10-06 23:33:00,53.8,46.1,30.00,NNW,341,1.5,4.3,75,0.00,,,1.99,WUHU21623XXSP,2013-10-07 04:33:00,
2013-10-06 23:38:00,53.8,46.5,29.99,NNW,337,2.9,3.4,76,0.00,,,1.99,WUHU21623XXSP,2013-10-07 04:38:00,
2013-10-06 23:43:00,53.4,46.1,29.99,NNW,337,4.9,5.4,76,0.00,,,1.99,WUHU21623XXSP,2013-10-07 04:43:00,
2013-10-06 23:48:00,53.4,46.1,30.00,NNW,339,3.1,5.6,76,0.00,,,1.99,WUHU21623XXSP,2013-10-07 04:48:00,
2013-10-06 23:53:00,53.2,45.9,29.99,NNW,345,2.2,6.3,76,0.00,,,1.99,WUHU21623XXSP,2013-10-07 04:53:00,
2013-10-06 23:58:00,53.2,45.9,29.99,NNW,345,1.3,6.3,76,0.00,,,1.99,WUHU21623XXSP,2013-10-07 04:58:00,